Wind_Speed
15 15 15 14 13 11 7 6 11 17 20 21 19 17 18 17 16 15 14 12 11 11 11 12 12 12 11 11 11 11 10 10 11 11 11 10 10 10 10 9 8 7 6 6 5 4 4 4 3
15 15 15 15 13 10 4 7 14 19 23 22 18 18 18 17 17 16 14 13 12 13 13 13 13 13 13 13 12 12 12 11 11 12 12 12 11 11 11 10 10 9 8 8 7 6 6 5 5
15 15 15 15 13 9 6 11 19 23 24 21 19 19 20 19 18 18 16 15 14 14 13 13 14 14 14 14 14 13 13 13 13 13 13 13 13 12 12 12 11 11 10 9 9 8 8 7 7
14 15 15 15 13 8 10 15 20 21 22 20 21 20 20 20 19 18 18 16 15 14 14 13 14 14 14 14 15 14 14 14 14 14 15 15 14 14 14 13 13 12 12 11 11 10 10 9 9
14 14 14 13 11 10 14 18 23 21 20 20 20 22 21 21 20 19 19 17 15 14 14 14 14 14 14 15 15 15 15 15 15 15 16 16 16 16 16 16 15 15 14 13 13 12 11 11 10
13 13 12 10 7 11 19 23 24 23 19 19 20 23 22 20 18 18 18 16 15 14 14 14 14 14 15 15 15 16 16 16 17 17 17 17 17 18 18 17 17 17 16 16 15 14 13 13 12
13 13 11 8 8 15 21 24 22 20 20 20 21 24 23 18 18 18 18 17 15 14 15 15 16 15 15 16 16 16 17 17 18 19 19 19 19 19 19 19 19 19 18 18 17 16 15 15 14
13 13 13 10 12 17 23 24 22 20 20 23 24 24 23 20 18 18 17 17 16 15 16 16 17 16 16 16 17 18 18 18 19 20 20 21 21 21 21 21 21 21 20 19 18 18 17 17 17
13 13 10 9 13 17 22 22 20 21 21 24 27 26 24 20 18 16 17 18 16 16 16 16 16 17 16 17 17 18 18 18 19 20 21 21 22 22 22 22 23 23 22 20 20 20 19 19 19
12 11 7 12 16 17 19 17 17 19 20 25 27 26 26 21 18 18 17 17 17 18 17 16 17 17 18 18 17 17 17 18 19 20 21 22 22 23 24 24 24 24 23 22 21 21 20 20 20
13 12 13 19 20 19 17 17 18 17 19 23 23 23 22 19 20 19 18 18 18 18 18 17 17 17 17 18 18 18 18 19 20 21 21 22 22 23 25 25 25 24 24 24 23 22 22 22 22
14 16 18 20 21 21 17 18 18 18 23 25 24 20 19 20 20 18 18 18 19 19 18 18 18 18 19 19 18 18 20 20 20 22 22 22 23 24 25 26 25 25 25 24 23 24 24 23 23
15 17 18 19 19 18 19 20 19 20 24 26 23 18 16 18 20 20 21 19 19 19 17 17 19 20 21 21 22 21 20 21 22 21 23 23 22 23 24 25 25 25 24 24 24 24 25 26 24
14 15 16 17 16 16 17 18 19 19 23 25 23 20 19 20 21 21 21 19 19 19 19 19 19 20 21 21 22 22 21 22 22 23 23 23 23 24 25 25 25 25 26 25 24 25 25 25 25
14 14 14 14 14 14 14 15 18 17 19 18 19 19 21 20 21 20 20 19 20 21 21 21 20 21 21 22 22 22 23 23 23 23 23 23 23 24 25 25 26 26 26 26 26 26 26 26 26
12 11 11 12 12 13 13 14 18 17 18 17 17 18 20 19 18 20 21 20 21 21 22 22 21 21 22 23 23 23 24 24 24 23 24 24 25 26 26 26 26 27 27 28 28 28 28 27 26
9 9 10 13 13 13 12 14 19 19 19 17 17 20 19 19 19 20 21 21 21 22 22 23 22 23 23 24 24 25 25 25 25 25 25 26 26 27 26 26 26 26 27 27 27 28 28 27 28
8 8 11 14 15 12 12 14 18 19 17 17 18 19 19 19 20 20 21 21 22 22 23 24 24 25 25 25 26 26 27 27 27 27 26 27 27 27 27 27 27 27 27 27 27 27 28 28 28
9 11 13 16 15 12 12 16 18 18 17 17 18 19 19 19 19 21 21 21 22 23 24 25 25 26 27 27 27 27 28 28 28 28 28 28 28 28 28 28 27 28 28 28 28 28 27 28 29
12 12 13 15 15 13 14 16 18 16 17 18 18 19 19 19 20 21 20 20 21 23 24 25 26 27 27 27 27 28 28 28 28 28 29 29 29 30 30 30 28 27 27 28 28 28 28 28 28
14 13 15 17 17 14 14 16 16 16 17 18 19 18 19 20 20 20 20 21 22 23 24 25 26 27 27 28 28 29 29 29 29 29 29 29 30 30 29 29 29 28 28 28 28 28 27 27 27
13 14 16 16 14 12 12 15 18 18 18 18 18 19 19 19 19 20 21 21 23 24 25 26 27 27 28 28 29 29 29 29 29 29 29 29 28 29 28 29 28 28 28 28 28 28 28 27 26
12 12 12 13 14 13 15 15 20 22 20 18 17 19 18 19 20 21 21 22 24 25 25 26 27 28 28 29 30 30 30 30 29 29 29 28 28 28 28 29 29 29 29 29 28 28 28 28 28
12 12 12 12 14 15 16 15 20 22 22 20 17 18 18 20 21 21 22 23 24 25 26 26 27 28 28 29 29 29 30 30 29 29 28 28 27 27 27 29 29 29 29 30 30 29 29 28 28
12 11 11 12 15 17 15 17 22 22 21 18 18 19 19 21 21 22 23 23 24 25 26 27 28 28 28 29 28 29 29 29 29 28 28 28 28 28 28 28 30 30 30 30 30 30 29 29 29
13 13 13 14 14 14 15 19 22 19 19 20 20 20 22 23 23 23 23 24 25 25 26 27 28 28 29 29 29 29 29 29 29 28 28 28 29 30 30 30 30 30 30 30 30 30 30 30 30
12 12 11 12 12 14 14 17 17 17 16 17 20 22 23 24 24 24 24 25 25 25 26 27 27 27 27 27 28 29 29 29 28 29 29 29 29 29 29 29 29 29 30 31 31 31 31 31 30
11 11 11 12 13 14 15 19 20 18 19 19 19 22 23 23 23 24 24 25 25 26 26 26 26 26 26 26 27 27 27 27 27 28 28 28 29 28 28 28 28 28 28 30 31 31 31 30 30
11 12 14 15 15 16 19 21 20 18 19 20 20 20 22 23 24 25 25 25 25 25 26 26 26 25 25 25 26 26 26 26 27 27 27 27 27 28 28 28 28 28 28 27 28 29 30 30 30
12 12 12 15 15 17 19 22 23 21 19 20 21 22 23 24 24 25 25 25 26 26 26 25 25 25 24 24 24 25 25 25 25 26 26 26 26 26 26 27 27 26 26 27 26 26 27 27 27
Wind_Direction
257 255 253 251 248 241 236 229 231 244 245 245 244 240 238 242 244 246 245 246 246 247 245 242 240 235 233 231 229 231 234 235 237 242 244 245 248 250 251 251 251 252 257 264 274 290 301 311 316
256 253 251 248 243 236 257 247 237 246 248 251 247 241 243 247 243 245 249 251 249 250 249 245 242 240 238 237 236 235 237 239 241 245 247 249 251 254 254 255 257 257 261 266 274 284 294 299 298
254 251 249 245 236 217 209 232 234 243 252 255 247 242 243 245 246 246 250 253 251 251 250 247 245 243 242 242 242 242 242 243 245 248 251 254 255 257 257 258 260 262 264 268 274 280 287 292 293
253 249 246 243 229 207 222 233 235 244 256 256 249 246 244 244 244 248 251 253 250 248 248 248 247 246 245 245 245 245 247 248 249 251 254 256 258 259 258 260 262 263 265 268 273 277 280 284 287
252 248 244 238 225 206 229 238 244 245 255 256 251 247 243 242 244 247 250 249 249 249 250 250 249 247 248 248 248 247 247 250 252 252 254 258 260 259 259 260 262 262 264 268 271 274 277 279 281
250 244 237 232 230 229 233 238 245 248 249 254 250 245 243 237 238 243 247 247 246 248 250 250 250 250 251 251 251 250 251 253 255 255 256 259 260 260 259 260 260 261 262 266 268 270 274 277 278
248 240 231 214 232 241 240 245 247 247 244 245 248 247 248 241 237 239 245 248 249 251 254 253 253 253 253 253 253 253 255 257 258 259 259 261 263 262 260 259 260 261 262 264 265 268 271 272 275
246 240 226 211 225 240 248 249 249 241 239 241 242 244 244 243 240 243 248 252 252 257 260 258 259 255 253 253 254 255 257 259 260 261 262 264 264 263 262 261 262 263 263 263 264 266 268 269 272
241 237 225 214 230 238 251 254 252 244 240 244 244 244 245 239 240 244 253 255 258 261 260 263 260 258 257 256 257 257 259 260 262 264 264 265 265 263 262 263 264 264 263 262 264 264 265 267 269
233 222 213 219 222 232 249 253 249 251 243 243 244 246 250 243 246 253 258 259 262 263 263 265 266 265 261 259 260 261 263 264 266 267 267 268 266 263 262 262 262 264 263 264 265 266 267 266 267
220 214 214 226 225 226 239 247 245 244 242 244 241 245 247 248 251 253 258 260 264 268 269 270 274 275 269 265 262 264 266 268 268 269 270 270 267 263 260 261 261 263 263 263 264 267 268 266 265
223 221 226 234 234 232 234 242 243 234 241 245 245 242 246 250 253 256 258 256 262 266 268 275 275 276 275 272 272 269 268 274 272 269 272 273 268 264 263 264 261 262 261 260 262 265 268 267 264
233 233 234 239 242 238 234 239 241 240 243 246 250 251 253 254 253 254 253 260 264 266 268 275 278 278 278 278 279 278 277 278 278 274 276 275 268 267 269 270 266 262 264 265 264 266 267 267 263
237 239 242 241 242 241 237 240 243 243 248 251 256 252 251 250 255 257 258 265 267 272 274 276 278 280 281 279 279 277 277 277 278 276 276 275 269 268 269 271 269 267 267 269 267 267 268 266 264
234 237 242 243 241 245 242 239 248 250 251 253 254 251 252 253 254 264 266 272 276 278 280 283 280 281 282 281 281 278 277 277 278 278 277 276 274 274 272 270 270 271 270 269 268 270 267 266 265
234 237 240 247 243 249 247 243 250 251 251 259 260 258 256 261 264 269 274 276 278 281 283 283 282 282 282 281 280 281 281 279 278 277 276 273 274 275 274 272 272 272 270 269 267 267 267 266 266
233 230 228 242 244 245 244 242 254 252 257 259 260 260 262 269 271 271 272 274 276 279 280 280 281 280 281 281 280 280 281 280 278 276 275 273 273 273 273 273 273 273 272 271 267 264 265 266 266
232 225 221 231 245 238 240 242 252 255 256 259 261 266 269 268 270 271 272 273 276 278 278 279 281 280 279 279 278 278 279 278 276 275 275 274 273 273 272 273 272 272 271 270 267 266 265 265 264
224 214 218 224 236 240 240 246 249 257 259 260 263 269 271 271 272 271 272 273 276 278 278 279 280 280 278 277 277 277 277 276 275 274 273 272 271 272 272 272 272 271 269 266 266 265 266 266 264
206 208 217 228 236 237 237 245 255 259 265 264 266 269 266 267 271 270 271 275 277 278 279 279 279 279 278 277 277 277 276 275 275 274 272 272 271 272 272 272 271 271 270 266 267 266 267 265 265
199 204 218 229 242 241 235 246 254 260 267 269 272 270 269 270 269 269 273 276 278 279 280 279 279 278 278 278 277 277 277 276 276 276 275 273 272 271 270 269 269 270 269 267 268 266 266 265 264
205 206 219 231 241 244 242 249 258 262 264 269 269 269 272 274 276 277 276 279 280 280 280 280 279 279 278 277 276 276 277 276 276 277 275 274 273 271 269 268 267 267 267 268 267 266 265 266 265
202 209 218 234 244 241 242 245 256 266 265 267 271 274 277 280 281 281 281 281 281 281 280 280 280 279 279 278 277 275 276 276 277 277 276 274 274 273 271 268 266 266 266 266 269 268 268 268 267
201 212 222 233 241 245 244 246 258 265 278 272 279 283 284 286 285 284 283 282 283 282 282 281 280 280 280 279 278 275 275 276 277 276 275 274 274 273 271 268 268 267 266 266 268 267 267 267 267
205 214 226 235 240 247 248 249 253 261 273 281 287 288 291 290 289 287 287 286 286 285 284 283 282 282 281 279 278 276 274 275 275 274 274 274 274 273 271 270 269 268 267 266 266 266 267 268 269
209 212 228 246 252 256 246 245 252 264 276 286 289 291 293 291 290 290 290 289 290 289 287 285 284 283 281 280 279 276 275 273 274 274 274 274 274 274 273 272 270 269 268 266 266 267 268 269 270
220 222 233 261 272 272 255 242 245 261 273 283 289 288 288 290 289 289 290 290 291 290 290 289 287 286 284 281 280 277 275 275 275 275 274 274 275 275 274 273 272 270 269 268 268 268 269 269 270
222 226 238 251 263 274 277 269 268 274 277 284 287 286 288 290 289 289 290 291 291 290 291 289 288 288 286 282 280 280 278 276 276 275 274 273 273 273 273 273 272 272 272 270 270 270 270 271 271
219 227 234 243 250 265 277 278 280 279 280 284 289 292 294 293 292 293 293 291 290 291 291 290 288 289 286 284 282 280 278 276 277 275 274 273 273 272 272 272 272 273 274 273 272 271 271 271 271
224 227 238 249 257 264 274 282 286 286 290 295 296 296 296 295 294 293 292 291 291 292 292 291 289 289 287 286 284 282 280 277 276 275 274 273 273 273 273 272 273 273 273 274 274 273 272 272 272
Height
5875 5876 5877 5880 5883 5885 5887 5889 5891 5890 5889 5888 5889 5890 5889 5890 5891 5892 5889 5889 5891 5891 5892 5892 5893 5894 5895 5896 5897 5897 5898 5899 5900 5901 5901 5902 5903 5903 5903 5903 5903 5903 5902 5902 5902 5901 5901 5900 5900
5872 5873 5875 5877 5880 5882 5886 5888 5889 5887 5885 5886 5888 5888 5887 5887 5886 5887 5886 5888 5889 5890 5890 5891 5892 5893 5894 5895 5895 5896 5897 5897 5898 5899 5900 5901 5901 5902 5902 5902 5902 5902 5902 5902 5901 5901 5901 5900 5900
5869 5870 5872 5874 5877 5879 5884 5887 5885 5882 5882 5885 5885 5885 5886 5885 5883 5884 5885 5886 5888 5888 5889 5890 5890 5891 5892 5893 5894 5894 5895 5896 5897 5897 5898 5899 5900 5900 5900 5901 5901 5901 5901 5901 5900 5900 5900 5900 5899
5865 5867 5870 5873 5875 5878 5881 5882 5879 5879 5880 5882 5882 5882 5882 5882 5881 5882 5883 5884 5885 5886 5887 5887 5888 5889 5890 5891 5892 5893 5893 5894 5895 5896 5896 5897 5897 5898 5898 5898 5899 5899 5899 5899 5899 5899 5899 5899 5898
5862 5864 5867 5869 5872 5876 5879 5878 5876 5878 5879 5878 5879 5878 5878 5878 5878 5880 5881 5882 5883 5884 5884 5885 5886 5887 5888 5889 5890 5890 5891 5892 5892 5893 5894 5894 5895 5895 5896 5896 5896 5896 5897 5897 5897 5897 5897 5897 5897
5859 5861 5864 5866 5870 5875 5875 5873 5873 5875 5876 5875 5875 5874 5873 5871 5874 5877 5878 5880 5880 5881 5882 5883 5884 5885 5886 5886 5887 5888 5889 5889 5890 5891 5891 5891 5892 5892 5893 5893 5893 5893 5894 5894 5894 5895 5895 5895 5895
5857 5859 5861 5865 5871 5873 5871 5869 5870 5872 5873 5873 5872 5869 5869 5869 5872 5874 5875 5876 5877 5878 5879 5880 5881 5882 5883 5883 5884 5885 5886 5887 5887 5888 5888 5889 5889 5889 5889 5890 5890 5890 5891 5891 5891 5892 5892 5893 5893
5853 5856 5858 5862 5868 5869 5865 5865 5866 5868 5869 5868 5866 5865 5866 5868 5869 5871 5872 5873 5874 5875 5876 5877 5878 5878 5879 5880 5881 5882 5883 5883 5884 5884 5885 5885 5885 5886 5886 5886 5886 5887 5887 5888 5888 5889 5889 5890 5890
5850 5853 5855 5861 5865 5865 5861 5861 5862 5863 5864 5864 5861 5861 5861 5863 5864 5866 5869 5871 5871 5872 5872 5874 5875 5876 5876 5877 5877 5878 5879 5879 5880 5881 5881 5881 5881 5882 5882 5882 5883 5883 5884 5885 5885 5885 5886 5886 5887
5847 5850 5855 5859 5860 5860 5858 5858 5858 5858 5860 5857 5856 5857 5858 5860 5861 5864 5866 5867 5868 5868 5869 5870 5871 5872 5873 5873 5874 5875 5875 5876 5876 5876 5877 5877 5877 5877 5878 5878 5878 5879 5880 5881 5881 5882 5882 5882 5883
5844 5847 5850 5851 5853 5854 5855 5855 5855 5855 5855 5852 5850 5852 5853 5855 5858 5861 5862 5863 5864 5865 5865 5866 5867 5868 5869 5869 5870 5871 5871 5871 5872 5872 5872 5872 5872 5873 5873 5873 5874 5875 5875 5876 5877 5878 5878 5878 5879
5841 5843 5844 5845 5847 5849 5851 5851 5851 5850 5850 5849 5843 5844 5848 5851 5854 5856 5856 5857 5858 5860 5860 5862 5863 5864 5865 5865 5865 5866 5866 5866 5867 5867 5867 5867 5867 5868 5869 5869 5869 5870 5870 5871 5872 5873 5873 5873 5874
5837 5839 5840 5841 5843 5845 5846 5846 5847 5847 5847 5846 5843 5844 5847 5849 5849 5852 5853 5853 5853 5853 5856 5857 5859 5860 5861 5861 5861 5862 5863 5863 5863 5862 5862 5861 5862 5863 5863 5864 5864 5864 5864 5865 5866 5867 5868 5868 5868
5834 5835 5837 5838 5839 5840 5842 5843 5843 5843 5842 5841 5842 5841 5844 5846 5847 5848 5848 5850 5851 5851 5851 5854 5855 5856 5856 5857 5857 5857 5858 5858 5858 5858 5858 5857 5856 5857 5858 5859 5859 5860 5860 5860 5861 5862 5862 5863 5864
5831 5833 5834 5835 5836 5837 5839 5840 5840 5841 5840 5839 5840 5839 5841 5841 5842 5843 5842 5845 5847 5848 5849 5850 5851 5851 5852 5852 5852 5852 5853 5853 5853 5853 5852 5852 5852 5853 5853 5854 5854 5854 5854 5855 5856 5857 5858 5858 5859
5828 5830 5832 5833 5834 5835 5838 5837 5836 5836 5837 5837 5837 5837 5837 5838 5838 5839 5840 5842 5844 5845 5845 5846 5846 5847 5847 5847 5848 5847 5848 5848 5848 5848 5848 5848 5848 5847 5847 5848 5848 5848 5848 5849 5850 5851 5853 5853 5853
5826 5828 5831 5833 5832 5833 5834 5835 5833 5834 5834 5834 5836 5835 5834 5835 5836 5837 5838 5839 5840 5840 5841 5842 5842 5842 5842 5842 5842 5842 5842 5842 5842 5842 5842 5843 5842 5842 5842 5842 5843 5843 5843 5843 5844 5845 5846 5847 5847
5826 5828 5831 5832 5830 5832 5832 5832 5831 5831 5831 5830 5831 5832 5832 5832 5833 5834 5834 5835 5835 5836 5836 5837 5837 5837 5837 5837 5837 5837 5836 5836 5836 5837 5837 5837 5837 5836 5836 5837 5837 5837 5837 5837 5838 5838 5839 5840 5841
5825 5828 5830 5830 5829 5830 5831 5829 5828 5829 5829 5828 5828 5830 5829 5829 5829 5830 5830 5831 5831 5831 5831 5831 5831 5832 5831 5831 5831 5831 5830 5830 5830 5830 5830 5830 5830 5830 5830 5830 5831 5831 5831 5831 5832 5833 5833 5833 5834
5822 5826 5828 5827 5827 5829 5829 5827 5826 5825 5826 5826 5827 5827 5826 5826 5826 5826 5826 5826 5827 5827 5826 5826 5826 5826 5825 5825 5825 5824 5824 5824 5824 5824 5824 5824 5824 5824 5824 5824 5824 5824 5824 5825 5826 5826 5827 5827 5828
5820 5824 5826 5825 5825 5826 5827 5826 5825 5824 5823 5823 5823 5822 5822 5822 5822 5821 5822 5822 5822 5822 5822 5821 5821 5820 5820 5819 5819 5818 5818 5818 5818 5817 5817 5817 5817 5817 5817 5817 5818 5818 5818 5819 5820 5820 5820 5821 5821
5818 5820 5822 5822 5822 5823 5825 5824 5822 5821 5821 5820 5819 5819 5819 5819 5819 5819 5819 5818 5818 5817 5816 5816 5815 5815 5814 5813 5812 5812 5811 5811 5811 5811 5810 5810 5810 5810 5810 5811 5811 5812 5812 5813 5813 5814 5814 5814 5815
5815 5817 5819 5819 5820 5821 5821 5821 5819 5816 5816 5815 5814 5814 5815 5815 5815 5815 5814 5814 5813 5812 5811 5810 5809 5809 5808 5807 5806 5805 5805 5804 5804 5804 5804 5803 5803 5803 5803 5804 5805 5805 5806 5806 5807 5807 5808 5808 5809
5812 5815 5816 5817 5817 5817 5817 5817 5815 5812 5812 5810 5810 5810 5811 5811 5811 5810 5810 5809 5808 5807 5806 5805 5804 5802 5802 5800 5799 5799 5798 5798 5797 5797 5797 5797 5797 5797 5797 5797 5798 5799 5799 5800 5800 5801 5802 5802 5802
5810 5813 5814 5814 5814 5813 5814 5814 5810 5808 5809 5806 5806 5807 5807 5807 5807 5806 5805 5804 5803 5801 5800 5799 5797 5796 5795 5794 5793 5792 5792 5791 5791 5791 5791 5791 5791 5791 5791 5791 5791 5792 5792 5793 5794 5794 5795 5796 5796
5807 5810 5811 5811 5810 5809 5810 5809 5807 5806 5806 5805 5804 5804 5803 5803 5802 5801 5800 5799 5797 5796 5794 5793 5791 5790 5788 5787 5786 5786 5785 5785 5785 5785 5785 5785 5784 5784 5784 5784 5784 5785 5785 5786 5787 5787 5788 5789 5789
5805 5807 5808 5808 5807 5806 5804 5801 5799 5802 5801 5802 5802 5801 5800 5799 5798 5796 5795 5793 5792 5790 5788 5786 5785 5783 5782 5780 5779 5779 5778 5778 5778 5778 5778 5778 5778 5777 5777 5778 5778 5778 5778 5779 5779 5780 5781 5782 5782
5803 5805 5806 5806 5806 5804 5803 5800 5797 5799 5799 5799 5797 5796 5795 5794 5792 5791 5790 5788 5786 5784 5782 5780 5779 5777 5775 5774 5773 5772 5772 5772 5772 5771 5771 5771 5771 5771 5771 5771 5771 5771 5771 5772 5772 5773 5774 5774 5775
5801 5803 5803 5803 5804 5803 5800 5800 5794 5794 5794 5794 5792 5791 5790 5789 5787 5785 5784 5782 5780 5778 5776 5774 5772 5771 5769 5768 5767 5766 5765 5765 5765 5764 5764 5764 5764 5764 5764 5764 5764 5764 5765 5765 5765 5766 5767 5767 5768
5798 5800 5801 5801 5800 5799 5797 5798 5792 5791 5789 5789 5788 5787 5785 5784 5782 5780 5778 5776 5774 5772 5770 5768 5766 5764 5763 5762 5760 5759 5759 5758 5758 5757 5757 5757 5757 5757 5757 5757 5757 5758 5758 5758 5759 5759 5760 5761 5761